,,PA_Meas_PMT16A,,PR_Meas_QMR101_102,,RH_Meas_QMH101,,SR_Meas_QMS101,,TA_Meas_QMH101,,GenWind,,GenWind,
time,status,PA,status,PR,status,RH,status,SR,status,TA,status,DirAvg,status,SpdAvg,
2015-04-25, 07:22:04,VALID,918.497,VALID,0,VALID,94.8124,VALID,81.4404,VALID,18.6903,VALID,149,VALID,0,
2015-04-25, 07:23:04,VALID,918.438,VALID,0,VALID,95.1021,VALID,117.648,VALID,18.6889,VALID,150,VALID,0,
2015-04-25, 07:24:04,VALID,918.454,VALID,0,VALID,95.1631,VALID,150.847,VALID,18.7084,VALID,151,VALID,0,
2015-04-25, 07:25:04,VALID,918.427,VALID,0,VALID,95.4071,VALID,161.699,VALID,18.7864,VALID,151,VALID,0,
2015-04-25, 07:26:04,VALID,918.422,VALID,0,VALID,95.4223,VALID,166.964,VALID,18.9034,VALID,151,VALID,0,
2015-04-25, 07:27:04,VALID,918.398,VALID,0,VALID,95.2622,VALID,172.121,VALID,19.0008,VALID,151,VALID,0,
2015-04-25, 07:28:04,VALID,918.385,VALID,0,VALID,95.1097,VALID,174.377,VALID,19.1373,VALID,151,VALID,0,
2015-04-25, 07:29:04,VALID,918.426,VALID,0,VALID,94.8048,VALID,163.955,VALID,19.2738,VALID,151,VALID,0,
2015-04-25, 07:30:04,VALID,918.415,VALID,0,VALID,94.5532,VALID,178.782,VALID,19.4478,VALID,151,VALID,0,
2015-04-25, 07:31:04,VALID,918.427,VALID,0,VALID,93.6918,VALID,197.799,VALID,19.6443,VALID,151,VALID,0,
2015-04-25, 07:32:04,VALID,918.442,VALID,0,VALID,92.5864,VALID,205.535,VALID,19.8588,VALID,151,VALID,0,
2015-04-25, 07:33:04,VALID,918.491,VALID,0,VALID,90.3299,VALID,211.552,VALID,20.0538,VALID,151,VALID,0,
2015-04-25, 07:34:04,VALID,918.482,VALID,0,VALID,88.5917,VALID,216.709,VALID,20.3058,VALID,151,VALID,0,
2015-04-25, 07:35:04,VALID,918.472,VALID,0,VALID,86.5105,VALID,207.684,VALID,20.4829,VALID,151,VALID,0,
2015-04-25, 07:36:04,VALID,918.537,VALID,0,VALID,85.4661,VALID,157.831,VALID,20.66,VALID,150,VALID,0,
2015-04-25, 07:37:04,VALID,918.542,VALID,0,VALID,84.6047,VALID,131.938,VALID,20.699,VALID,150,VALID,0,
2015-04-25, 07:38:04,VALID,918.555,VALID,0,VALID,85.0316,VALID,120.549,VALID,20.678,VALID,150,VALID,0,
2015-04-25, 07:39:04,VALID,918.581,VALID,0,VALID,85.7177,VALID,140.426,VALID,20.7365,VALID,149,VALID,0,
2015-04-25, 07:40:04,VALID,918.598,VALID,0,VALID,85.1231,VALID,116.359,VALID,20.8129,VALID,149,VALID,0,
2015-04-25, 07:41:04,VALID,918.607,VALID,0,VALID,84.0939,VALID,107.011,VALID,20.834,VALID,149,VALID,0,
2015-04-25, 07:42:04,VALID,918.6,VALID,0,VALID,85.245,VALID,94.5482,VALID,20.8145,VALID,149,VALID,0,
2015-04-25, 07:43:04,VALID,918.649,VALID,0,VALID,85.5347,VALID,112.921,VALID,20.7739,VALID,149,VALID,0,
2015-04-25, 07:44:04,VALID,918.634,VALID,0,VALID,86.0379,VALID,102.929,VALID,20.8129,VALID,149,VALID,0,
2015-04-25, 07:45:04,VALID,918.667,VALID,0,VALID,85.3975,VALID,108.193,VALID,20.8535,VALID,148,VALID,0,
2015-04-25, 07:46:04,VALID,918.667,VALID,0,VALID,84.3607,VALID,117.756,VALID,20.7739,VALID,148,VALID,0,
2015-04-25, 07:47:04,VALID,918.68,VALID,0,VALID,84.6885,VALID,106.582,VALID,20.717,VALID,148,VALID,0,
2015-04-25, 07:48:04,VALID,918.727,VALID,0,VALID,85.5119,VALID,123.235,VALID,20.7349,VALID,148,VALID,0,
2015-04-25, 07:49:04,VALID,918.755,VALID,0,VALID,85.9311,VALID,104.97,VALID,20.8129,VALID,148,VALID,0,
2015-04-25, 07:50:04,VALID,918.768,VALID,0,VALID,85.9388,VALID,109.16,VALID,20.8519,VALID,148,VALID,0,
2015-04-25, 07:51:04,VALID,918.743,VALID,0,VALID,85.1231,VALID,121.623,VALID,20.891,VALID,148,VALID,0,
2015-04-25, 07:52:04,VALID,918.731,VALID,0,VALID,85.1459,VALID,114.103,VALID,20.8519,VALID,149,VALID,0,
2015-04-25, 07:53:04,VALID,918.731,VALID,0,VALID,85.8549,VALID,116.466,VALID,20.7934,VALID,149,VALID,0,
2015-04-25, 07:54:04,VALID,918.746,VALID,0,VALID,85.9998,VALID,134.087,VALID,20.6959,VALID,149,VALID,0,
2015-04-25, 07:55:04,VALID,918.736,VALID,0,VALID,86.3428,VALID,153.748,VALID,20.5789,VALID,149,VALID,0,
2015-04-25, 07:56:04,VALID,918.759,VALID,0,VALID,86.7545,VALID,112.061,VALID,20.4228,VALID,151,VALID,0,
2015-04-25, 07:57:04,VALID,918.79,VALID,0,VALID,87.715,VALID,103.358,VALID,20.3058,VALID,152,VALID,0,
2015-04-25, 07:58:04,VALID,918.801,VALID,0,VALID,88.02,VALID,102.069,VALID,20.1873,VALID,164,VALID,0,
2015-04-25, 07:59:04,VALID,918.828,VALID,0,VALID,88.6832,VALID,101.854,VALID,20.1498,VALID,164,VALID,0,
2015-04-25, 08:00:04,VALID,918.876,VALID,0,VALID,89.9029,VALID,110.664,VALID,20.1288,VALID,164,VALID,0,
2015-04-25, 08:01:04,VALID,918.882,VALID,0,VALID,90.307,VALID,191.245,VALID,20.1288,VALID,165,VALID,0,
2015-04-25, 08:02:04,VALID,918.907,VALID,0,VALID,90.5128,VALID,205.965,VALID,20.1873,VALID,165,VALID,0,
2015-04-25, 08:03:04,VALID,918.888,VALID,0,VALID,90.1393,VALID,182.328,VALID,20.2848,VALID,165,VALID,0,
2015-04-25, 08:04:04,VALID,918.896,VALID,0,VALID,89.3312,VALID,249.156,VALID,20.3838,VALID,165,VALID,0,
2015-04-25, 08:05:04,VALID,918.902,VALID,0,VALID,88.5155,VALID,262.156,VALID,20.4798,VALID,165,VALID,0,
2015-04-25, 08:06:04,VALID,918.887,VALID,0,VALID,87.0899,VALID,247.222,VALID,20.6569,VALID,165,VALID,0,
2015-04-25, 08:07:04,VALID,918.887,VALID,0,VALID,86.6477,VALID,253.454,VALID,20.8519,VALID,165,VALID,0,
2015-04-25, 08:08:04,VALID,918.895,VALID,0,VALID,85.2069,VALID,183.939,VALID,20.969,VALID,180,VALID,0,
2015-04-25, 08:09:04,VALID,918.915,VALID,0,VALID,84.8791,VALID,221.651,VALID,21.086,VALID,179,VALID,0,
2015-04-25, 08:10:04,VALID,918.907,VALID,0,VALID,85.6262,VALID,184.476,VALID,21.1836,VALID,179,VALID,0,
2015-04-25, 08:11:04,VALID,918.92,VALID,0,VALID,85.893,VALID,110.127,VALID,21.2616,VALID,179,VALID,0,
2015-04-25, 08:12:04,VALID,918.925,VALID,0,VALID,84.9325,VALID,124.632,VALID,21.3201,VALID,143,VALID,0,
2015-04-25, 08:13:04,VALID,918.947,VALID,0,VALID,83.6517,VALID,120.979,VALID,21.2226,VALID,143,VALID,0,
2015-04-25, 08:14:04,VALID,918.964,VALID,0,VALID,83.6365,VALID,115.177,VALID,21.1461,VALID,143,VALID,0,
2015-04-25, 08:15:04,VALID,918.984,VALID,0,VALID,84.3683,VALID,121.194,VALID,21.047,VALID,145,VALID,0,
2015-04-25, 08:16:04,VALID,918.973,VALID,0,VALID,84.3074,VALID,172.55,VALID,20.969,VALID,150,VALID,0,
2015-04-25, 08:17:04,VALID,918.991,VALID,0,VALID,84.5056,VALID,174.162,VALID,20.93,VALID,151,VALID,0,
2015-04-25, 08:18:04,VALID,919.008,VALID,0,VALID,85.9921,VALID,175.237,VALID,20.93,VALID,155,VALID,0,
2015-04-25, 08:19:04,VALID,919.047,VALID,0,VALID,86.5334,VALID,229.709,VALID,20.9284,VALID,175,VALID,0,
2015-04-25, 08:20:04,VALID,919.074,VALID,0,VALID,86.8078,VALID,356.812,VALID,21.047,VALID,159,VALID,0,
2015-04-25, 08:21:04,VALID,919.081,VALID,0,VALID,87.067,VALID,279.454,VALID,21.125,VALID,150,VALID,0,
2015-04-25, 08:22:04,VALID,919.117,VALID,0,VALID,85.9311,VALID,368.308,VALID,21.1445,VALID,147,VALID,0,
2015-04-25, 08:23:04,VALID,919.188,VALID,0,VALID,85.1383,VALID,324.687,VALID,21.086,VALID,148,VALID,0,
2015-04-25, 08:24:04,VALID,919.194,VALID,0,VALID,85.489,VALID,317.274,VALID,21.125,VALID,161,VALID,0,
2015-04-25, 08:25:04,VALID,919.222,VALID,0,VALID,85.6491,VALID,380.557,VALID,21.2421,VALID,162,VALID,0,
2015-04-25, 08:26:04,VALID,919.242,VALID,0,VALID,84.5818,VALID,351.655,VALID,21.2405,VALID,175,VALID,0,
2015-04-25, 08:27:04,VALID,919.282,VALID,0,VALID,84.1854,VALID,256.355,VALID,21.26,VALID,167,VALID,0,
2015-04-25, 08:28:04,VALID,919.273,VALID,0,VALID,84.9325,VALID,304.166,VALID,21.26,VALID,169,VALID,0,
2015-04-25, 08:29:04,VALID,919.28,VALID,0,VALID,85.2679,VALID,382.168,VALID,21.3185,VALID,134,VALID,0,
2015-04-25, 08:30:04,VALID,919.323,VALID,0,VALID,85.0697,VALID,449.104,VALID,21.338,VALID,149,VALID,0,
2015-04-25, 08:31:04,VALID,919.326,VALID,0,VALID,84.78,VALID,520.123,VALID,21.4355,VALID,159,VALID,0,
2015-04-25, 08:32:04,VALID,919.318,VALID,0,VALID,85.8168,VALID,519.371,VALID,21.6306,VALID,148,VALID,0,
2015-04-25, 08:33:04,VALID,919.32,VALID,0,VALID,82.7217,VALID,516.577,VALID,21.6891,VALID,130,VALID,0,
2015-04-25, 08:34:04,VALID,919.281,VALID,0,VALID,80.9454,VALID,496.056,VALID,21.8257,VALID,137,VALID,0,
2015-04-25, 08:35:04,VALID,919.259,VALID,0,VALID,80.0459,VALID,499.816,VALID,21.8257,VALID,136,VALID,0,
2015-04-25, 08:36:04,VALID,919.229,VALID,0,VALID,83.141,VALID,504.114,VALID,21.8647,VALID,107,VALID,0,
2015-04-25, 08:37:04,VALID,919.237,VALID,0,VALID,79.7181,VALID,514.536,VALID,21.9444,VALID,120,VALID,0,
2015-04-25, 08:38:04,VALID,919.236,VALID,0,VALID,78.9252,VALID,512.494,VALID,21.9428,VALID,134,VALID,0.021875,
2015-04-25, 08:39:04,VALID,919.221,VALID,0,VALID,80.3203,VALID,508.519,VALID,22.0598,VALID,143,VALID,0,
2015-04-25, 08:40:04,VALID,919.212,VALID,0,VALID,78.8795,VALID,501.106,VALID,22.1574,VALID,147,VALID,0,
2015-04-25, 08:41:04,VALID,919.194,VALID,0,VALID,79.436,VALID,498.634,VALID,22.3508,VALID,167,VALID,0,
2015-04-25, 08:42:04,VALID,919.178,VALID,0,VALID,78.8337,VALID,490.684,VALID,22.6062,VALID,134,VALID,0,
2015-04-25, 08:43:04,VALID,919.173,VALID,0,VALID,75.8149,VALID,486.064,VALID,22.663,VALID,167,VALID,0.914063,
2015-04-25, 08:44:04,VALID,919.143,VALID,0,VALID,76.5925,VALID,495.519,VALID,22.686,VALID,172,VALID,0.925,
2015-04-25, 08:45:04,VALID,919.142,VALID,0,VALID,77.8198,VALID,495.948,VALID,22.7038,VALID,138,VALID,1.02266,
2015-04-25, 08:46:04,VALID,919.14,VALID,0,VALID,77.2328,VALID,458.451,VALID,22.7818,VALID,151,VALID,0.415234,
2015-04-25, 08:47:04,VALID,919.169,VALID,0,VALID,75.0754,VALID,463.609,VALID,22.7818,VALID,151,VALID,0.930469,
2015-04-25, 08:48:04,VALID,919.141,VALID,0,VALID,76.905,VALID,519.371,VALID,22.8599,VALID,159,VALID,0.767578,
2015-04-25, 08:49:04,VALID,919.16,VALID,0,VALID,73.2382,VALID,528.073,VALID,22.9753,VALID,160,VALID,0.483203,
2015-04-25, 08:50:04,VALID,919.158,VALID,0,VALID,75.1516,VALID,514.858,VALID,23.2307,VALID,159,VALID,0,
2015-04-25, 08:51:04,VALID,919.172,VALID,0,VALID,71.6449,VALID,486.064,VALID,23.3088,VALID,132,VALID,0,
2015-04-25, 08:52:04,VALID,919.171,VALID,0,VALID,72.209,VALID,535.702,VALID,23.2893,VALID,129,VALID,0,
2015-04-25, 08:53:04,VALID,919.179,VALID,0,VALID,71.5534,VALID,506.692,VALID,23.3869,VALID,149,VALID,0,
2015-04-25, 08:54:04,VALID,919.162,VALID,0,VALID,73.0171,VALID,532.908,VALID,23.3656,VALID,146,VALID,0,
2015-04-25, 08:55:04,VALID,919.148,VALID,0,VALID,74.092,VALID,453.939,VALID,23.4046,VALID,141,VALID,0,
2015-04-25, 08:56:04,VALID,919.125,VALID,0,VALID,74.5951,VALID,415.582,VALID,23.5608,VALID,148,VALID,0,
2015-04-25, 08:57:04,VALID,919.117,VALID,0,VALID,72.8951,VALID,440.079,VALID,23.5412,VALID,147,VALID,0,
2015-04-25, 08:58:04,VALID,919.088,VALID,0,VALID,73.3144,VALID,496.378,VALID,23.5608,VALID,130,VALID,0,
2015-04-25, 08:59:04,VALID,919.063,VALID,0,VALID,74.9306,VALID,542.47,VALID,23.3638,VALID,130,VALID,0,
2015-04-25, 09:00:04,VALID,919.038,VALID,0,VALID,75.327,VALID,545.371,VALID,23.268,VALID,134,VALID,0,
2015-04-25, 09:01:04,VALID,919.046,VALID,0,VALID,73.787,VALID,505.403,VALID,23.1899,VALID,160,VALID,0,
2015-04-25, 09:02:04,VALID,919.026,VALID,0,VALID,75.2279,VALID,564.066,VALID,23.1314,VALID,163,VALID,0,
2015-04-25, 09:03:04,VALID,919.002,VALID,0,VALID,75.1669,VALID,566.967,VALID,23.1509,VALID,163,VALID,1.1043,
2015-04-25, 09:04:04,VALID,918.984,VALID,0,VALID,73.8175,VALID,567.289,VALID,23.3053,VALID,163,VALID,0.234375,
2015-04-25, 09:05:04,VALID,918.967,VALID,0,VALID,74.0691,VALID,567.074,VALID,23.5395,VALID,161,VALID,0.498828,
2015-04-25, 09:06:04,VALID,918.961,VALID,0,VALID,73.4592,VALID,570.19,VALID,23.7755,VALID,161,VALID,0.317969,
2015-04-25, 09:07:04,VALID,918.934,VALID,0,VALID,72.0337,VALID,574.058,VALID,24.0097,VALID,145,VALID,0.975781,
2015-04-25, 09:08:04,VALID,918.947,VALID,0,VALID,71.7058,VALID,575.562,VALID,24.0097,VALID,153,VALID,0.463672,
2015-04-25, 09:09:04,VALID,918.913,VALID,0,VALID,69.4874,VALID,583.298,VALID,24.086,VALID,181,VALID,0.0140625,
2015-04-25, 09:10:04,VALID,918.863,VALID,0,VALID,70.0363,VALID,584.372,VALID,24.0683,VALID,224,VALID,0.365234,
2015-04-25, 09:11:04,VALID,918.857,VALID,0,VALID,70.6005,VALID,592.968,VALID,24.0311,VALID,225,VALID,0,
2015-04-25, 09:12:04,VALID,918.811,VALID,0,VALID,71.1798,VALID,594.687,VALID,23.9902,VALID,225,VALID,0,
2015-04-25, 09:13:04,VALID,918.8,VALID,0,VALID,70.2498,VALID,595.654,VALID,24.0488,VALID,225,VALID,0,
2015-04-25, 09:14:04,VALID,918.767,VALID,0,VALID,69.5865,VALID,593.935,VALID,24.0488,VALID,226,VALID,0,
2015-04-25, 09:15:04,VALID,918.751,VALID,0,VALID,70.9359,VALID,597.48,VALID,24.0878,VALID,226,VALID,0,
2015-04-25, 09:16:04,VALID,918.752,VALID,0,VALID,71.8354,VALID,600.059,VALID,24.4392,VALID,226,VALID,0,
2015-04-25, 09:17:04,VALID,918.731,VALID,0,VALID,68.2829,VALID,610.695,VALID,24.7693,VALID,226,VALID,0,
2015-04-25, 09:18:04,VALID,918.755,VALID,0,VALID,66.5829,VALID,624.126,VALID,25.1031,VALID,217,VALID,0,
2015-04-25, 09:19:04,VALID,918.75,VALID,0,VALID,63.8766,VALID,638.63,VALID,25.3746,VALID,300,VALID,0,
2015-04-25, 09:20:04,VALID,918.735,VALID,0,VALID,63.1829,VALID,654.961,VALID,25.4917,VALID,300,VALID,0,
2015-04-25, 09:21:04,VALID,918.76,VALID,0,VALID,63.4573,VALID,665.813,VALID,25.4917,VALID,300,VALID,0,
2015-04-25, 09:22:04,VALID,918.771,VALID,0,VALID,64.3111,VALID,673.656,VALID,25.5913,VALID,300,VALID,0,
2015-04-25, 09:23:04,VALID,918.775,VALID,0,VALID,64.334,VALID,677.739,VALID,25.648,VALID,290,VALID,0,
2015-04-25, 09:24:04,VALID,918.806,VALID,0,VALID,63.8537,VALID,671.185,VALID,25.4722,VALID,269,VALID,0.287109,
2015-04-25, 09:25:04,VALID,918.793,VALID,0,VALID,64.1129,VALID,661.3,VALID,24.9859,VALID,256,VALID,0.419531,
2015-04-25, 09:26:04,VALID,918.778,VALID,0,VALID,62.5501,VALID,657.003,VALID,24.6716,VALID,256,VALID,0,
2015-04-25, 09:27:04,VALID,918.796,VALID,0,VALID,62.4663,VALID,647.226,VALID,24.6521,VALID,262,VALID,0,
2015-04-25, 09:28:04,VALID,918.768,VALID,0,VALID,64.86,VALID,641.209,VALID,24.6716,VALID,266,VALID,0,
2015-04-25, 09:29:04,VALID,918.776,VALID,0,VALID,65.5004,VALID,639.597,VALID,24.6112,VALID,264,VALID,0,
2015-04-25, 09:30:04,VALID,918.765,VALID,0,VALID,62.8932,VALID,640.994,VALID,24.8083,VALID,3,VALID,0.380078,
2015-04-25, 09:31:04,VALID,918.721,VALID,0,VALID,60.7434,VALID,647.44,VALID,25.0407,VALID,3,VALID,0,
2015-04-25, 09:32:04,VALID,918.734,VALID,0,VALID,62.7483,VALID,657.862,VALID,25.3141,VALID,3,VALID,0,
2015-04-25, 09:33:04,VALID,918.695,VALID,0,VALID,61.4752,VALID,663.019,VALID,25.607,VALID,4,VALID,0.324219,
2015-04-25, 09:34:04,VALID,918.684,VALID,0,VALID,57.8236,VALID,669.788,VALID,25.7827,VALID,6,VALID,0.125391,
2015-04-25, 09:35:04,VALID,918.699,VALID,0,VALID,56.8859,VALID,671.722,VALID,25.8413,VALID,6,VALID,0,
2015-04-25, 09:36:04,VALID,918.656,VALID,0,VALID,57.9227,VALID,680.64,VALID,25.8804,VALID,12,VALID,0,
2015-04-25, 09:37:04,VALID,918.682,VALID,0,VALID,57.9075,VALID,684.293,VALID,25.8628,VALID,5,VALID,0,
2015-04-25, 09:38:04,VALID,918.652,VALID,0,VALID,57.5568,VALID,693.318,VALID,25.8823,VALID,5,VALID,0,
2015-04-25, 09:39:04,VALID,918.637,VALID,0,VALID,57.694,VALID,707.07,VALID,26.0386,VALID,28,VALID,0,
2015-04-25, 09:40:04,VALID,918.635,VALID,0,VALID,53.6079,VALID,712.442,VALID,26.0581,VALID,14,VALID,0,
2015-04-25, 09:41:04,VALID,918.593,VALID,0,VALID,53.646,VALID,645.077,VALID,26.0406,VALID,359,VALID,0,
2015-04-25, 09:42:04,VALID,918.598,VALID,0,VALID,54.942,VALID,615.53,VALID,26.1167,VALID,359,VALID,0,
2015-04-25, 09:43:04,VALID,918.559,VALID,0,VALID,55.1097,VALID,634.655,VALID,26.4292,VALID,36,VALID,0,
2015-04-25, 09:44:04,VALID,918.552,VALID,0,VALID,53.1352,VALID,686.979,VALID,26.4878,VALID,57,VALID,0.280078,
2015-04-25, 09:45:04,VALID,918.522,VALID,0,VALID,53.5774,VALID,676.772,VALID,26.273,VALID,67,VALID,0.913281,
2015-04-25, 09:46:04,VALID,918.507,VALID,0,VALID,54.8657,VALID,659.581,VALID,25.9604,VALID,69,VALID,0.0125,
2015-04-25, 09:47:04,VALID,918.465,VALID,0,VALID,58.8375,VALID,663.557,VALID,25.8823,VALID,51,VALID,0.000390625,
2015-04-25, 09:48:04,VALID,918.476,VALID,0,VALID,57.6483,VALID,675.375,VALID,26.0581,VALID,55,VALID,0,
2015-04-25, 09:49:04,VALID,918.448,VALID,0,VALID,57.0994,VALID,686.119,VALID,26.273,VALID,54,VALID,0,
2015-04-25, 09:50:04,VALID,918.414,VALID,0,VALID,58.4945,VALID,684.722,VALID,26.1753,VALID,102,VALID,0,
2015-04-25, 09:51:04,VALID,918.41,VALID,0,VALID,56.7563,VALID,692.243,VALID,26.3296,VALID,146,VALID,0,
2015-04-25, 09:52:04,VALID,918.384,VALID,0,VALID,59.0434,VALID,688.375,VALID,26.4643,VALID,40,VALID,0.0910156,
2015-04-25, 09:53:04,VALID,918.38,VALID,0,VALID,57.29,VALID,696.971,VALID,26.6791,VALID,1,VALID,0,
2015-04-25, 09:54:04,VALID,918.344,VALID,0,VALID,57.3433,VALID,700.624,VALID,26.7963,VALID,2,VALID,0,
2015-04-25, 09:55:04,VALID,918.344,VALID,0,VALID,54.6523,VALID,704.921,VALID,26.8354,VALID,337,VALID,0,
2015-04-25, 09:56:04,VALID,918.31,VALID,0,VALID,56.0245,VALID,709.864,VALID,26.5815,VALID,322,VALID,0,
2015-04-25, 09:57:04,VALID,918.305,VALID,0,VALID,56.8021,VALID,712.657,VALID,26.4663,VALID,322,VALID,0,
2015-04-25, 09:58:04,VALID,918.297,VALID,0,VALID,56.9469,VALID,717.922,VALID,26.2885,VALID,322,VALID,0,
2015-04-25, 09:59:04,VALID,918.317,VALID,0,VALID,58.2353,VALID,720.393,VALID,26.1518,VALID,285,VALID,0.253516,
2015-04-25, 10:00:04,VALID,918.324,VALID,0,VALID,60.1259,VALID,725.12,VALID,26.0151,VALID,213,VALID,0.812891,
2015-04-25, 10:01:04,VALID,918.282,VALID,0,VALID,62.1613,VALID,730.385,VALID,25.9975,VALID,219,VALID,0.0195313,
2015-04-25, 10:02:04,VALID,918.283,VALID,0,VALID,64.3493,VALID,730.922,VALID,26.2124,VALID,206,VALID,0,
2015-04-25, 10:03:04,VALID,918.285,VALID,0,VALID,61.6582,VALID,757.46,VALID,26.4077,VALID,186,VALID,0.0226563,
2015-04-25, 10:04:04,VALID,918.267,VALID,0,VALID,61.0331,VALID,673.441,VALID,26.6226,VALID,174,VALID,0,
2015-04-25, 10:05:04,VALID,918.299,VALID,0,VALID,58.3649,VALID,744.137,VALID,26.7202,VALID,182,VALID,0.566016,
2015-04-25, 10:06:04,VALID,918.251,VALID,0,VALID,59.0891,VALID,766.7,VALID,26.7377,VALID,225,VALID,0.4,
2015-04-25, 10:07:04,VALID,918.269,VALID,0,VALID,59.0967,VALID,751.766,VALID,26.8374,VALID,220,VALID,0,
2015-04-25, 10:08:04,VALID,918.273,VALID,0,VALID,57.107,VALID,755.526,VALID,26.9546,VALID,213,VALID,0,
2015-04-25, 10:09:04,VALID,918.271,VALID,0,VALID,55.9101,VALID,752.84,VALID,27.2477,VALID,165,VALID,0,
2015-04-25, 10:10:04,VALID,918.251,VALID,0,VALID,54.7819,VALID,744.567,VALID,27.4821,VALID,185,VALID,0,
2015-04-25, 10:11:04,VALID,918.234,VALID,0,VALID,55.3155,VALID,741.022,VALID,27.2477,VALID,165,VALID,0,
2015-04-25, 10:12:04,VALID,918.225,VALID,0,VALID,56.4895,VALID,739.088,VALID,27.3258,VALID,193,VALID,0.104297,
2015-04-25, 10:13:04,VALID,918.212,VALID,0,VALID,58.7232,VALID,738.013,VALID,27.187,VALID,234,VALID,0,
2015-04-25, 10:14:04,VALID,918.251,VALID,0,VALID,56.7868,VALID,737.906,VALID,27.1284,VALID,217,VALID,0.109375,
2015-04-25, 10:15:04,VALID,918.199,VALID,0,VALID,58.5097,VALID,738.013,VALID,26.7573,VALID,174,VALID,0.616016,
2015-04-25, 10:16:04,VALID,918.23,VALID,0,VALID,58.8451,VALID,739.195,VALID,26.7573,VALID,175,VALID,0,
2015-04-25, 10:17:04,VALID,918.244,VALID,0,VALID,56.9088,VALID,741.989,VALID,26.7963,VALID,269,VALID,0,
2015-04-25, 10:18:04,VALID,918.237,VALID,0,VALID,59.4093,VALID,748.22,VALID,26.7984,VALID,189,VALID,0.134375,
2015-04-25, 10:19:04,VALID,918.23,VALID,0,VALID,60.1792,VALID,748.972,VALID,26.8374,VALID,218,VALID,0,
2015-04-25, 10:20:04,VALID,918.243,VALID,0,VALID,61.1855,VALID,753.377,VALID,27.0112,VALID,212,VALID,0.726563,
2015-04-25, 10:21:04,VALID,918.255,VALID,0,VALID,59.7142,VALID,750.369,VALID,27.0698,VALID,184,VALID,0.759375,
2015-04-25, 10:22:04,VALID,918.232,VALID,0,VALID,56.4514,VALID,745.964,VALID,27.0914,VALID,177,VALID,1.67266,
2015-04-25, 10:23:04,VALID,918.231,VALID,0,VALID,58.1972,VALID,736.724,VALID,26.9917,VALID,200,VALID,0.00117188,
2015-04-25, 10:24:04,VALID,918.251,VALID,0,VALID,58.746,VALID,739.947,VALID,26.9526,VALID,227,VALID,0.245703,
2015-04-25, 10:25:04,VALID,918.224,VALID,0,VALID,58.7613,VALID,736.617,VALID,26.8354,VALID,240,VALID,0.371094,
2015-04-25, 10:26:04,VALID,918.236,VALID,0,VALID,59.6304,VALID,745.427,VALID,26.6401,VALID,256,VALID,0.798828,
2015-04-25, 10:27:04,VALID,918.269,VALID,0,VALID,60.568,VALID,580.397,VALID,26.5815,VALID,266,VALID,0.841406,
2015-04-25, 10:28:04,VALID,918.253,VALID,0,VALID,59.638,VALID,530.759,VALID,26.3666,VALID,254,VALID,0.0773437,
2015-04-25, 10:29:04,VALID,918.248,VALID,0,VALID,60.9035,VALID,312.439,VALID,26.308,VALID,240,VALID,0,
2015-04-25, 10:30:04,VALID,918.269,VALID,0,VALID,61.8945,VALID,337.58,VALID,26.2905,VALID,228,VALID,0.003125,
2015-04-25, 10:31:04,VALID,918.273,VALID,0,VALID,61.7649,VALID,427.616,VALID,26.0737,VALID,239,VALID,1.04336,
2015-04-25, 10:32:04,VALID,918.271,VALID,0,VALID,62.7331,VALID,674.301,VALID,25.8784,VALID,215,VALID,1.55313,
2015-04-25, 10:33:04,VALID,918.27,VALID,0,VALID,63.5488,VALID,790.445,VALID,25.8784,VALID,213,VALID,0.0277344,
2015-04-25, 10:34:04,VALID,918.309,VALID,0,VALID,63.7394,VALID,765.303,VALID,26.0541,VALID,259,VALID,1.11641,
2015-04-25, 10:35:04,VALID,918.286,VALID,0,VALID,63.2591,VALID,779.7,VALID,25.8979,VALID,286,VALID,0.0105469,
2015-04-25, 10:36:04,VALID,918.288,VALID,0,VALID,62.6264,VALID,778.841,VALID,25.9389,VALID,281,VALID,0,
2015-04-25, 10:37:04,VALID,918.257,VALID,0,VALID,63.6708,VALID,771.213,VALID,25.9585,VALID,257,VALID,0,
2015-04-25, 10:38:04,VALID,918.234,VALID,0,VALID,61.7039,VALID,759.287,VALID,25.9585,VALID,257,VALID,0,
2015-04-25, 10:39:04,VALID,918.208,VALID,0,VALID,62.2376,VALID,756.708,VALID,26.0366,VALID,257,VALID,0,
2015-04-25, 10:40:04,VALID,918.204,VALID,0,VALID,62.9618,VALID,751.336,VALID,26.2319,VALID,212,VALID,0,
2015-04-25, 10:41:04,VALID,918.197,VALID,0,VALID,64.1358,VALID,749.187,VALID,26.6226,VALID,212,VALID,0,
2015-04-25, 10:42:04,VALID,918.178,VALID,0,VALID,59.7371,VALID,747.468,VALID,27.0132,VALID,212,VALID,0,
2015-04-25, 10:43:04,VALID,918.139,VALID,0,VALID,58.8451,VALID,746.501,VALID,27.2672,VALID,212,VALID,0,
2015-04-25, 10:44:04,VALID,918.118,VALID,0,VALID,59.173,VALID,744.46,VALID,27.404,VALID,212,VALID,0,
2015-04-25, 10:45:04,VALID,918.091,VALID,0,VALID,60.0878,VALID,743.063,VALID,27.5017,VALID,212,VALID,0,
2015-04-25, 10:46:04,VALID,918.096,VALID,0,VALID,56.8631,VALID,751.014,VALID,27.5212,VALID,193,VALID,0.294922,
2015-04-25, 10:47:04,VALID,918.079,VALID,0,VALID,58.1743,VALID,754.667,VALID,27.3454,VALID,151,VALID,0.0769531,
2015-04-25, 10:48:04,VALID,918.074,VALID,0,VALID,58.3801,VALID,759.072,VALID,27.2086,VALID,169,VALID,0,
2015-04-25, 10:49:04,VALID,918.062,VALID,0,VALID,58.7842,VALID,760.576,VALID,27.2086,VALID,163,VALID,0,
2015-04-25, 10:50:04,VALID,918.069,VALID,0,VALID,59.4017,VALID,763.262,VALID,27.404,VALID,71,VALID,0,
2015-04-25, 10:51:04,VALID,918.044,VALID,0,VALID,59.1196,VALID,776.907,VALID,27.5798,VALID,36,VALID,0,
2015-04-25, 10:52:04,VALID,918.011,VALID,0,VALID,56.3752,VALID,783.891,VALID,27.5603,VALID,138,VALID,0.317578,
2015-04-25, 10:53:04,VALID,917.983,VALID,0,VALID,58.6622,VALID,794.742,VALID,27.2672,VALID,123,VALID,0,
2015-04-25, 10:54:04,VALID,917.985,VALID,0,VALID,62.1537,VALID,812.255,VALID,27.404,VALID,122,VALID,0,
2015-04-25, 10:55:04,VALID,917.964,VALID,0,VALID,57.8236,VALID,862.323,VALID,27.3649,VALID,77,VALID,0.187109,
2015-04-25, 10:56:04,VALID,917.959,VALID,0,VALID,59.2111,VALID,862.108,VALID,27.0112,VALID,80,VALID,0,
2015-04-25, 10:57:04,VALID,917.971,VALID,0,VALID,60.2174,VALID,374.755,VALID,26.8765,VALID,80,VALID,0,
2015-04-25, 10:58:04,VALID,917.966,VALID,0,VALID,59.7981,VALID,853.19,VALID,26.7398,VALID,130,VALID,0.00429688,
2015-04-25, 10:59:04,VALID,917.951,VALID,0,VALID,59.4703,VALID,641.853,VALID,26.7593,VALID,159,VALID,0.133203,
2015-04-25, 11:00:04,VALID,917.943,VALID,0,VALID,59.8972,VALID,855.876,VALID,26.8765,VALID,189,VALID,0,
2015-04-25, 11:01:04,VALID,917.93,VALID,0,VALID,59.8133,VALID,855.554,VALID,26.8765,VALID,148,VALID,0.000390625,
2015-04-25, 11:02:04,VALID,917.941,VALID,0,VALID,62.2223,VALID,853.727,VALID,26.7007,VALID,148,VALID,0,
2015-04-25, 11:03:04,VALID,917.949,VALID,0,VALID,62.756,VALID,843.521,VALID,26.7593,VALID,116,VALID,0,
2015-04-25, 11:04:04,VALID,917.942,VALID,0,VALID,62.0394,VALID,859.959,VALID,26.9156,VALID,126,VALID,0,
2015-04-25, 11:05:04,VALID,917.948,VALID,0,VALID,62.4358,VALID,848.033,VALID,26.9546,VALID,150,VALID,0.00351562,